Вернуться в каталог

AIST-2T NO. 1

АктивенНаукаSSO
NORAD 67253·PAYLOAD·🇷🇺 Russia
Это название спутника еще не подтверждено официальными источниками.

Запущен Dec 28, 2025 с Vostochny Cosmodrome

Loading…

Ближайшие Пролёты (ближайшие 24 часа)

TLE

СвежийSource: Space-Track

Эпоха: Sep 14, 2026, 19:32 UTC

1 67253U 25313F   26257.81390553  .00031986  00000-0  38542-3 0  9995
2 67253  97.0746 335.2749 0005025 245.4191 114.6544 15.60725097 40606

Отслеживайте AIST-2T NO. 1 в реальном времени с AllMySat

Download on the App Store